Location: Bonneuil
(46.1010°N, 2.9693°E)
Time: 18:16:54
(UTC+00:00)

ISS - Pass Details

Date: 12 March 2021
Orbit: 418 x 422 km, 51.6° (Epoch: 12 April)

Event Time Altitude Azimuth Distance (km) Brightness Sun altitude
Exits shadow 04:48:52 25° 229° (SW) 884 -2.6 -14.2°
Maximum altitude 04:49:07 25° 221° (SW) 877 -2.6 -14.2°
Drops below altitude 10° 04:51:57 10° 163° (SSE) 1,490 -0.9 -13.7°
Sets 04:54:15 0° 150° (SSE) 2,350 0.3 -13.3°
